Time,TemperatureF,DewpointF,PressureIn,WindDirection,WindDirectionDegrees,WindSpeedMPH,WindSpeedGustMPH,Humidity,HourlyPrecipIn,Conditions,Clouds,dailyrainin,SoftwareType,DateUTC
2013-05-09 07:10:00,59.3,33.0,30.08,NE,46,0.0,1.0,37,0.00,,,0.00,Wunderground v.1.15,2013-05-09 14:10:00,
2013-05-09 07:20:00,58.6,33.7,30.08,NE,40,1.0,1.0,39,0.00,,,0.00,Wunderground v.1.15,2013-05-09 14:20:00,
2013-05-09 07:30:00,59.2,32.9,30.08,North,354,1.0,3.0,37,0.00,,,0.00,Wunderground v.1.15,2013-05-09 14:30:00,
2013-05-09 07:40:00,59.9,32.2,30.08,ENE,69,2.0,2.0,35,0.00,,,0.00,Wunderground v.1.15,2013-05-09 14:40:00,
2013-05-09 07:50:00,61.0,33.8,30.08,NE,52,1.0,1.0,36,0.00,,,0.00,Wunderground v.1.15,2013-05-09 14:50:00,
2013-05-09 08:00:00,61.7,33.7,30.08,NW,321,1.0,1.0,35,0.00,,,0.00,Wunderground v.1.15,2013-05-09 15:00:00,
2013-05-09 08:10:00,61.9,33.2,30.08,NNE,12,2.0,2.0,34,0.00,,,0.00,Wunderground v.1.15,2013-05-09 15:10:00,
2013-05-09 08:20:00,62.3,34.3,30.08,SE,139,2.0,2.0,35,0.00,,,0.00,Wunderground v.1.15,2013-05-09 15:20:00,
2013-05-09 08:30:00,63.3,35.2,30.08,ENE,67,2.0,2.0,35,0.00,,,0.00,Wunderground v.1.15,2013-05-09 15:30:00,
2013-05-09 08:40:00,63.4,35.2,30.09,NNE,26,3.0,5.0,35,0.00,,,0.00,Wunderground v.1.15,2013-05-09 15:40:00,
2013-05-09 08:50:00,63.9,34.2,30.08,North,8,2.0,4.0,33,0.00,,,0.00,Wunderground v.1.15,2013-05-09 15:50:00,
2013-05-09 09:01:00,64.5,34.0,30.08,ESE,123,2.0,2.0,32,0.00,,,0.00,Wunderground v.1.15,2013-05-09 16:01:00,
2013-05-09 09:10:00,65.7,35.0,30.08,East,88,1.0,1.0,32,0.00,,,0.00,Wunderground v.1.15,2013-05-09 16:10:00,
2013-05-09 09:20:00,66.3,33.9,30.08,North,359,2.0,3.0,30,0.00,,,0.00,Wunderground v.1.15,2013-05-09 16:20:00,
2013-05-09 09:30:00,66.1,33.7,30.08,SSE,154,2.0,2.0,30,0.00,,,0.00,Wunderground v.1.15,2013-05-09 16:30:00,
2013-05-09 09:40:00,66.9,34.4,30.08,East,96,2.0,2.0,30,0.00,,,0.00,Wunderground v.1.15,2013-05-09 16:40:00,
2013-05-09 09:50:00,68.3,34.8,30.08,ESE,120,1.0,1.0,29,0.00,,,0.00,Wunderground v.1.15,2013-05-09 16:50:00,
2013-05-09 10:00:00,69.2,35.6,30.07,NE,55,2.0,2.0,29,0.00,,,0.00,Wunderground v.1.15,2013-05-09 17:00:00,
2013-05-09 10:10:00,70.5,33.9,30.07,SW,235,2.0,3.0,26,0.00,,,0.00,Wunderground v.1.15,2013-05-09 17:10:00,
2013-05-09 10:20:00,70.3,35.6,30.07,ESE,113,3.0,3.0,28,0.00,,,0.00,Wunderground v.1.15,2013-05-09 17:20:00,
2013-05-09 10:31:00,70.4,34.8,30.07,SSE,165,2.0,2.0,27,0.00,,,0.00,Wunderground v.1.15,2013-05-09 17:31:00,
2013-05-09 10:40:00,71.3,34.6,30.06,ESE,115,2.0,2.0,26,0.00,,,0.00,Wunderground v.1.15,2013-05-09 17:40:00,
2013-05-09 10:50:00,72.2,33.4,30.06,East,82,2.0,2.0,24,0.00,,,0.00,Wunderground v.1.15,2013-05-09 17:50:00,
2013-05-09 11:00:00,72.3,34.5,30.06,SSE,157,1.0,4.0,25,0.00,,,0.00,Wunderground v.1.15,2013-05-09 18:00:00,
2013-05-09 11:10:00,73.5,33.4,30.06,ENE,72,3.0,3.0,23,0.00,,,0.00,Wunderground v.1.15,2013-05-09 18:10:00,
2013-05-09 11:20:00,73.0,34.1,30.05,North,359,2.0,2.0,24,0.00,,,0.00,Wunderground v.1.15,2013-05-09 18:20:00,
2013-05-09 11:31:00,74.6,34.3,30.05,SW,236,2.0,2.0,23,0.00,,,0.00,Wunderground v.1.15,2013-05-09 18:31:00,
2013-05-09 11:40:00,74.8,34.5,30.04,ENE,73,2.0,5.0,23,0.00,,,0.00,Wunderground v.1.15,2013-05-09 18:40:00,
2013-05-09 11:50:00,75.4,35.0,30.04,NNE,22,3.0,3.0,23,0.00,,,0.00,Wunderground v.1.15,2013-05-09 18:50:00,
2013-05-09 12:00:00,75.2,32.6,30.04,WNW,295,2.0,5.0,21,0.00,,,0.00,Wunderground v.1.15,2013-05-09 19:00:00,
2013-05-09 12:10:00,76.4,34.7,30.04,East,86,4.0,4.0,22,0.00,,,0.00,Wunderground v.1.15,2013-05-09 19:10:00,
2013-05-09 12:20:00,76.4,33.6,30.03,East,79,3.0,3.0,21,0.00,,,0.00,Wunderground v.1.15,2013-05-09 19:20:00,
2013-05-09 12:30:00,76.0,34.4,30.03,NW,322,3.0,4.0,22,0.00,,,0.00,Wunderground v.1.15,2013-05-09 19:30:00,
2013-05-09 12:40:00,73.1,33.1,30.03,NW,321,4.0,5.0,23,0.00,,,0.00,Wunderground v.1.15,2013-05-09 19:40:00,
2013-05-09 12:50:00,71.7,34.0,30.03,NW,306,5.0,7.0,25,0.00,,,0.00,Wunderground v.1.15,2013-05-09 19:50:00,
2013-05-09 13:01:00,68.0,36.2,30.03,NW,304,10.0,12.0,31,0.00,,,0.00,Wunderground v.1.15,2013-05-09 20:01:00,
2013-05-09 13:10:00,65.0,39.4,30.05,NE,46,8.0,8.0,39,0.20,,,0.02,Wunderground v.1.15,2013-05-09 20:10:00,
2013-05-09 13:20:00,63.0,41.3,30.03,East,82,3.0,3.0,45,0.06,,,0.02,Wunderground v.1.15,2013-05-09 20:20:00,
2013-05-09 13:30:00,64.3,42.5,30.03,North,359,1.0,3.0,45,0.00,,,0.02,Wunderground v.1.15,2013-05-09 20:30:00,
2013-05-09 13:40:00,66.9,39.8,30.03,NW,307,3.0,9.0,37,0.00,,,0.02,Wunderground v.1.15,2013-05-09 20:40:00,
2013-05-09 13:50:00,68.4,38.9,30.02,NW,311,6.0,7.0,34,0.00,,,0.02,Wunderground v.1.15,2013-05-09 20:50:00,
2013-05-09 14:00:00,69.3,37.3,30.02,NW,313,4.0,7.0,31,0.00,,,0.02,Wunderground v.1.15,2013-05-09 21:00:00,
2013-05-09 14:10:00,69.4,38.2,30.02,NNE,28,5.0,5.0,32,0.00,,,0.02,Wunderground v.1.15,2013-05-09 21:10:00,
2013-05-09 14:20:00,70.9,37.9,30.02,NW,316,4.0,6.0,30,0.00,,,0.02,Wunderground v.1.15,2013-05-09 21:20:00,
2013-05-09 14:30:00,71.3,39.9,30.02,NW,323,8.0,12.0,32,0.00,,,0.02,Wunderground v.1.15,2013-05-09 21:30:00,
2013-05-09 14:40:00,70.7,39.4,30.02,NW,313,14.0,14.0,32,0.00,,,0.02,Wunderground v.1.15,2013-05-09 21:40:00,
2013-05-09 14:50:00,71.1,38.9,30.01,NNW,333,12.0,12.0,31,0.00,,,0.02,Wunderground v.1.15,2013-05-09 21:50:00,
2013-05-09 15:00:00,71.5,39.3,30.01,NNW,347,13.0,13.0,31,0.00,,,0.02,Wunderground v.1.15,2013-05-09 22:00:00,
2013-05-09 15:10:00,72.0,39.7,30.00,WNW,285,12.0,12.0,31,0.00,,,0.02,Wunderground v.1.15,2013-05-09 22:10:00,
2013-05-09 15:20:00,72.7,37.7,30.00,NNW,347,13.0,13.0,28,0.00,,,0.02,Wunderground v.1.15,2013-05-09 22:20:00,
2013-05-09 15:30:00,72.4,39.2,30.00,NNW,340,13.0,13.0,30,0.00,,,0.02,Wunderground v.1.15,2013-05-09 22:30:00,
2013-05-09 15:40:00,72.2,39.0,30.00,NNW,333,12.0,15.0,30,0.00,,,0.02,Wunderground v.1.15,2013-05-09 22:40:00,
2013-05-09 15:50:00,72.5,38.4,30.00,NE,39,12.0,12.0,29,0.00,,,0.02,Wunderground v.1.15,2013-05-09 22:50:00,
2013-05-09 16:00:00,72.8,38.7,30.01,NNW,347,11.0,11.0,29,0.00,,,0.02,Wunderground v.1.15,2013-05-09 23:00:00,
2013-05-09 16:10:00,73.5,35.5,30.02,NW,305,6.0,7.0,25,0.00,,,0.02,Wunderground v.1.15,2013-05-09 23:10:00,
2013-05-09 16:20:00,70.8,36.1,30.02,SW,220,5.0,6.0,28,0.00,,,0.02,Wunderground v.1.15,2013-05-09 23:20:00,
2013-05-09 16:30:00,70.8,34.2,30.00,NW,323,5.0,13.0,26,0.00,,,0.02,Wunderground v.1.15,2013-05-09 23:30:00,
2013-05-09 16:40:00,72.9,31.8,30.00,WNW,303,5.0,5.0,22,0.00,,,0.02,Wunderground v.1.15,2013-05-09 23:40:00,
2013-05-09 16:50:00,73.7,35.7,30.00,NW,307,5.0,5.0,25,0.00,,,0.02,Wunderground v.1.15,2013-05-09 23:50:00,
2013-05-09 17:00:00,72.1,35.3,30.00,WNW,282,7.0,7.0,26,0.00,,,0.02,Wunderground v.1.15,2013-05-10 00:00:00,
2013-05-09 17:10:00,70.7,34.1,30.00,WSW,239,4.0,4.0,26,0.00,,,0.02,Wunderground v.1.15,2013-05-10 00:10:00,
2013-05-09 17:20:00,70.4,32.9,30.01,WNW,295,3.0,3.0,25,0.00,,,0.02,Wunderground v.1.15,2013-05-10 00:20:00,
2013-05-09 17:30:00,70.4,33.9,30.00,ENE,66,0.0,1.0,26,0.00,,,0.02,Wunderground v.1.15,2013-05-10 00:30:00,
2013-05-09 17:40:00,70.2,35.5,30.00,NNE,33,1.0,2.0,28,0.00,,,0.02,Wunderground v.1.15,2013-05-10 00:40:00,
2013-05-09 17:50:00,69.0,36.3,30.00,NE,43,7.0,12.0,30,0.00,,,0.02,Wunderground v.1.15,2013-05-10 00:50:00,
2013-05-09 18:00:00,68.1,36.3,30.01,North,8,7.0,10.0,31,0.00,,,0.02,Wunderground v.1.15,2013-05-10 01:00:00,
2013-05-09 18:10:00,67.7,36.0,30.01,North,353,6.0,7.0,31,0.00,,,0.02,Wunderground v.1.15,2013-05-10 01:10:00,
2013-05-09 18:20:00,67.4,35.7,30.01,North,355,6.0,11.0,31,0.00,,,0.02,Wunderground v.1.15,2013-05-10 01:20:00,
2013-05-09 18:40:00,67.3,36.4,30.02,NNW,339,7.0,7.0,32,0.00,,,0.02,Wunderground v.1.15,2013-05-10 01:40:00,
2013-05-09 18:50:00,66.7,36.7,30.02,North,11,6.0,6.0,33,0.00,,,0.02,Wunderground v.1.15,2013-05-10 01:50:00,
2013-05-09 19:00:00,66.0,36.1,30.02,NW,316,6.0,6.0,33,0.00,,,0.02,Wunderground v.1.15,2013-05-10 02:00:00,
2013-05-09 19:10:00,65.0,35.9,30.03,NE,34,2.0,2.0,34,0.00,,,0.02,Wunderground v.1.15,2013-05-10 02:10:00,
2013-05-09 19:20:00,64.1,37.3,30.03,NNE,23,3.0,3.0,37,0.00,,,0.02,Wunderground v.1.15,2013-05-10 02:20:00,
2013-05-09 19:30:00,63.5,36.7,30.03,NNW,341,2.0,2.0,37,0.00,,,0.02,Wunderground v.1.15,2013-05-10 02:30:00,
2013-05-09 19:40:00,62.6,36.6,30.04,North,11,1.0,1.0,38,0.00,,,0.02,Wunderground v.1.15,2013-05-10 02:40:00,
2013-05-09 19:50:00,61.5,35.6,30.04,WNW,285,1.0,1.0,38,0.00,,,0.02,Wunderground v.1.15,2013-05-10 02:50:00,
2013-05-09 20:00:00,60.2,35.1,30.05,WNW,283,0.0,0.0,39,0.00,,,0.02,Wunderground v.1.15,2013-05-10 03:00:00,
2013-05-09 20:10:00,58.9,35.2,30.05,SSE,156,0.0,0.0,41,0.00,,,0.02,Wunderground v.1.15,2013-05-10 03:10:00,
2013-05-09 20:20:00,58.4,34.8,30.06,WNW,295,0.0,0.0,41,0.00,,,0.02,Wunderground v.1.15,2013-05-10 03:20:00,
2013-05-09 20:30:00,57.5,34.6,30.06,WNW,293,0.0,0.0,42,0.00,,,0.02,Wunderground v.1.15,2013-05-10 03:30:00,
2013-05-09 20:40:00,56.7,34.4,30.06,WNW,292,0.0,1.0,43,0.00,,,0.02,Wunderground v.1.15,2013-05-10 03:40:00,
2013-05-09 20:50:00,55.7,34.1,30.06,NW,311,1.0,1.0,44,0.00,,,0.02,Wunderground v.1.15,2013-05-10 03:50:00,
2013-05-09 21:00:00,55.0,34.0,30.07,WNW,291,1.0,1.0,45,0.00,,,0.02,Wunderground v.1.15,2013-05-10 04:00:00,